Theta_e
341 340 342 341 339 339 337 337 336 336 336 336 337 338 338 338 338 338 341 341 340 340 340 341 341 340 339 339 338 338 338 339 338 338 339 340 340 339 338 340 341 344 343
341 341 342 341 341 342 342 341 338 338 338 336 335 335 336 336 337 339 341 341 340 340 338 340 338 336 336 335 335 334 335 337 339 340 340 341 341 338 340 339 333 333 335
342 342 343 340 342 342 343 342 335 335 338 338 338 339 336 336 336 337 340 340 338 338 338 336 336 337 337 337 336 335 335 335 335 336 339 342 342 338 338 338 339 340 338
340 342 342 340 340 341 342 338 337 338 339 338 333 340 340 338 337 338 340 341 340 340 336 337 337 337 340 341 341 342 343 343 343 335 328 329 331 334 335 335 335 337 339
338 338 338 338 337 338 339 338 340 342 336 336 339 341 341 341 339 338 340 340 340 334 338 339 336 340 340 341 343 344 344 344 342 340 337 335 332 331 330 330 331 332 335
341 341 342 338 336 336 339 340 341 334 339 336 340 340 340 341 341 343 341 338 338 339 331 332 339 342 343 346 344 344 343 341 341 341 340 337 331 332 336 337 337 331 328
340 340 339 335 335 339 340 338 341 338 335 336 339 341 342 340 341 339 337 338 333 334 331 332 340 342 346 346 347 344 341 341 342 343 343 341 336 331 330 331 333 335 337
339 340 337 340 339 341 338 338 338 341 338 339 341 341 341 335 336 342 341 331 331 330 329 331 341 344 346 347 347 344 343 344 343 343 344 342 339 334 332 332 332 332 332
339 340 340 344 340 337 340 339 336 336 339 342 340 341 339 339 339 339 340 331 328 328 330 341 343 345 346 346 344 346 346 345 341 342 343 342 339 336 333 331 331 331 332
341 340 339 340 341 340 333 338 334 335 335 340 340 339 339 336 336 335 332 327 325 325 327 337 343 346 345 345 346 347 347 343 342 343 343 342 341 337 334 333 332 332 332
339 338 338 339 340 339 337 340 340 337 338 340 341 340 339 339 336 333 328 328 329 327 327 328 340 344 344 345 345 345 344 344 343 341 342 343 342 338 335 334 333 333 333
339 338 338 338 339 340 339 339 338 340 339 338 339 339 339 339 333 331 331 331 330 329 331 334 339 343 344 344 343 344 342 342 342 342 341 342 343 341 339 335 332 333 335
336 336 336 337 338 340 340 338 338 339 340 337 337 337 340 340 334 332 332 332 334 333 335 340 343 344 341 341 342 342 342 343 341 341 342 342 342 341 341 339 338 337 335
336 335 336 337 337 338 338 339 341 340 337 336 337 337 338 339 331 333 334 339 343 344 344 345 343 337 337 343 344 342 344 344 344 342 342 343 343 343 342 342 339 339 340
338 337 335 337 337 339 338 337 340 337 336 336 339 339 338 333 330 333 336 339 340 343 345 344 343 345 344 343 344 344 344 343 343 343 344 344 342 343 342 340 339 338 338
338 338 335 337 338 338 337 336 338 339 337 337 340 339 337 330 331 332 335 341 345 345 345 345 344 344 345 344 345 345 345 345 343 343 343 342 345 343 342 339 337 337 337
341 340 337 337 337 337 337 336 337 339 339 338 342 339 339 336 336 342 342 343 344 344 344 344 346 346 345 344 342 343 344 344 344 345 344 344 344 347 342 339 338 340 339
342 340 340 336 337 336 334 336 337 338 340 336 341 340 341 342 338 341 343 344 343 343 345 343 344 343 345 343 343 342 342 344 344 344 344 346 345 346 343 339 339 341 342
342 342 340 336 336 337 337 338 338 336 338 340 342 337 340 341 339 343 343 343 342 344 347 343 343 345 344 344 344 343 344 343 345 344 344 344 347 345 347 345 342 343 343
342 343 340 339 337 338 339 341 338 340 342 341 339 338 335 339 340 342 341 340 343 342 342 343 345 344 344 343 342 343 344 343 343 343 343 344 347 345 345 346 345 348 346
343 343 339 337 339 341 339 341 341 342 342 341 341 341 339 338 340 341 337 340 342 340 341 344 343 344 342 343 342 342 344 343 343 342 339 343 345 345 344 341 341 347 347
343 343 341 340 340 336 341 341 342 342 342 343 342 338 337 338 338 335 336 341 342 343 342 342 341 342 343 342 344 343 343 343 338 337 339 341 344 344 344 344 345 342 342
343 344 342 341 342 338 337 342 343 343 343 343 344 342 342 340 339 339 334 342 342 342 343 343 341 340 342 342 342 343 344 340 335 334 338 343 343 343 343 344 345 346 343
341 343 342 342 342 342 340 341 343 343 344 343 344 342 343 342 342 339 337 337 341 345 344 345 344 340 339 344 344 344 344 341 339 343 340 338 340 339 341 337 340 342 347
341 342 342 342 342 343 343 339 341 343 343 343 342 342 343 342 340 342 338 337 339 344 345 342 341 343 337 345 343 340 343 340 337 344 343 342 342 341 343 342 339 340 345
342 342 342 343 343 343 344 344 343 340 343 344 344 343 345 342 342 341 337 335 339 342 342 341 339 343 342 341 340 341 338 336 342 344 344 344 343 345 344 344 342 340 343
Wind_Speed
21 19 15 17 17 16 17 16 16 16 16 16 16 17 16 15 14 12 13 13 13 12 12 13 13 14 14 13 13 13 13 12 11 10 10 10 10 10 10 10 10 11 11
22 20 18 17 17 16 16 15 14 14 15 14 14 14 15 14 13 13 12 13 14 14 15 16 16 16 16 16 16 16 15 13 11 9 9 10 9 9 9 9 9 10 11
20 20 18 16 16 15 14 14 14 13 14 14 13 14 15 14 13 12 12 12 14 14 15 16 16 17 17 18 19 19 17 14 10 8 8 6 7 5 7 7 8 9 10
20 19 18 15 15 14 14 12 12 13 14 13 14 13 16 16 14 13 12 13 14 14 15 16 17 19 18 17 16 14 12 13 11 9 6 4 4 4 5 7 8 8 8
19 18 17 15 14 14 13 12 12 13 13 14 15 14 18 16 14 14 14 15 14 15 16 16 18 19 17 15 13 11 8 6 8 7 7 5 4 5 5 5 6 7 7
19 18 16 16 15 14 13 12 12 11 13 16 15 16 16 16 15 15 15 14 15 16 15 18 20 18 17 13 9 8 7 6 7 6 6 6 5 5 6 5 5 5 6
18 17 17 17 16 15 14 13 12 11 14 16 17 17 17 17 17 16 16 14 14 15 15 17 18 16 13 9 8 7 9 8 7 4 4 5 5 6 6 6 6 6 5
15 17 17 16 16 16 15 14 13 14 15 16 16 16 16 16 16 16 14 14 15 15 16 18 17 15 10 9 7 9 8 8 5 5 5 4 4 5 5 5 5 5 5
15 15 18 16 15 14 15 15 13 14 14 14 15 16 16 16 16 15 14 13 14 16 17 18 18 14 10 7 6 8 7 4 2 9 4 3 4 4 4 4 4 4 4
16 18 17 17 16 14 14 13 14 14 14 15 15 16 16 15 14 13 14 14 16 17 17 18 16 13 8 6 5 3 3 4 5 3 2 2 3 3 4 4 4 4 5
15 16 16 15 15 13 14 14 15 16 15 15 15 17 14 13 14 13 14 15 16 17 16 16 15 12 8 6 4 3 5 4 4 3 1 1 2 2 4 3 4 5 6
18 17 15 15 15 14 14 16 18 17 16 15 16 16 15 15 14 14 15 15 16 17 17 15 13 10 8 3 1 2 5 6 8 5 1 3 2 1 3 2 3 4 4
16 14 14 15 16 13 14 16 17 18 18 17 15 14 15 15 15 15 15 16 17 18 15 12 8 4 6 10 3 3 2 4 8 9 3 8 5 2 1 1 1 2 1
15 13 10 12 16 16 16 17 17 20 18 15 14 15 13 15 18 18 17 15 15 12 8 7 5 12 10 11 9 5 3 3 4 6 10 4 6 4 2 1 1 0 1
14 12 10 10 16 17 19 19 20 19 17 16 13 11 12 16 20 18 17 14 11 7 4 5 5 6 6 9 7 6 2 3 4 6 7 6 6 5 4 4 3 1 1
14 14 14 9 14 21 20 19 21 20 19 18 15 15 16 18 20 20 17 12 7 7 6 7 4 6 4 5 7 3 1 3 2 6 7 8 6 6 4 4 6 6 4
13 13 14 10 14 21 20 19 20 24 20 15 16 16 15 15 18 17 16 12 9 6 5 5 3 3 5 5 2 1 3 2 4 7 7 8 6 4 6 5 5 7 9
16 14 14 13 17 20 20 19 20 20 18 18 16 13 12 10 15 16 13 10 8 5 2 3 1 6 6 1 3 1 4 7 8 9 7 4 5 4 5 5 4 4 7
18 17 15 16 18 19 19 19 20 21 20 18 14 14 14 10 15 14 9 8 8 7 4 2 0 4 5 1 1 4 6 7 6 7 8 5 2 5 5 4 4 1 4
20 18 14 19 19 19 20 18 22 21 19 17 13 12 11 7 15 13 9 9 10 11 8 5 2 3 1 1 2 4 4 4 5 7 8 4 1 3 2 2 1 3 1
24 21 17 21 19 19 23 24 23 19 18 16 13 12 9 9 13 12 9 14 11 13 10 7 5 3 4 0 1 1 2 6 7 8 5 1 2 2 2 2 1 1 1
29 22 20 21 20 21 22 25 20 20 20 16 13 12 10 9 8 11 15 18 15 14 14 10 7 7 6 4 4 2 4 7 8 9 8 4 2 2 4 2 2 2 2
34 28 23 23 21 19 25 21 19 20 21 18 18 14 10 9 7 9 22 22 13 11 11 10 8 10 8 8 7 4 4 5 6 2 2 4 2 5 5 7 6 7 3
35 30 23 23 24 22 21 22 24 23 20 17 18 15 13 11 8 7 16 14 11 10 9 7 9 11 10 9 9 8 8 8 2 4 2 7 10 10 6 7 8 9 9
36 34 27 23 27 26 22 25 26 24 21 16 17 16 14 14 10 12 14 16 13 11 10 10 12 12 11 10 7 8 9 6 5 6 9 8 12 7 7 8 9 7 10
41 37 32 27 26 29 25 24 23 27 24 20 20 19 18 16 12 12 13 16 17 15 16 15 15 13 11 12 12 8 10 9 6 3 7 10 11 5 6 7 9 7 8
Wind_Direction
171 172 160 159 155 146 141 138 138 142 142 141 138 137 138 137 133 129 125 116 117 119 119 122 123 123 122 121 122 122 116 114 116 126 135 144 144 136 139 136 145 148 150
164 170 164 160 162 152 147 147 147 148 149 150 151 148 147 144 140 136 127 118 112 114 115 120 122 120 119 121 118 113 111 113 114 123 132 141 131 134 141 144 150 149 148
168 167 166 162 163 162 158 156 156 157 156 157 157 164 164 157 150 142 134 126 119 118 118 121 124 125 120 118 118 112 107 103 103 110 117 130 143 137 145 148 152 149 148
171 169 169 169 166 165 163 161 158 159 157 156 155 161 168 165 156 149 140 129 122 118 126 130 129 128 123 122 117 119 116 105 98 94 125 152 162 157 156 163 167 163 165
169 171 177 178 173 171 166 165 159 154 150 149 147 139 151 153 149 148 140 130 127 130 134 134 134 127 119 114 110 110 110 104 87 77 98 108 137 160 165 166 173 176 176
165 168 172 176 174 173 170 169 163 154 151 149 147 142 138 137 139 136 133 135 133 134 134 132 130 125 117 121 112 104 95 114 118 96 89 95 117 142 159 167 172 171 176
164 166 169 171 173 173 173 164 152 154 147 149 146 139 137 136 133 137 136 140 136 135 135 136 130 124 121 110 94 103 94 99 106 105 110 117 128 132 137 144 155 165 176
177 171 171 172 175 174 167 156 164 154 150 145 145 137 137 139 139 132 129 132 131 133 133 136 132 133 134 121 105 89 107 62 105 133 112 104 116 123 136 140 146 150 164
181 187 175 174 174 172 173 171 166 156 155 145 142 138 134 132 132 134 129 130 129 128 131 138 144 148 143 123 114 76 96 71 103 99 99 80 82 111 121 128 129 129 135
196 194 187 183 183 180 173 168 160 158 155 150 143 136 135 135 135 133 132 128 125 126 133 151 152 155 150 128 109 87 80 57 32 58 88 63 57 90 113 136 143 140 127
188 193 196 194 191 186 183 165 162 159 155 149 142 141 139 136 133 132 129 127 123 125 137 154 161 167 152 135 100 60 17 27 46 47 126 98 75 79 106 132 133 133 129
183 190 196 196 190 190 179 173 166 160 156 152 147 148 141 139 133 131 131 127 124 127 138 140 147 147 143 107 70 61 50 51 51 61 246 193 154 104 94 81 103 115 125
165 179 191 198 188 186 177 177 165 158 154 152 149 150 147 138 138 138 137 130 121 123 130 130 139 136 115 86 105 180 128 67 59 63 171 182 146 123 72 142 121 102 107
171 172 170 180 186 177 170 167 158 152 152 157 161 154 163 147 147 147 144 137 129 129 131 123 114 109 101 61 65 84 168 289 346 20 56 96 138 116 94 110 3 359 355
178 181 170 172 182 174 167 164 161 156 160 161 163 172 164 152 150 150 150 148 140 142 145 138 144 118 85 68 59 67 25 354 3 337 31 75 145 131 84 71 66 57 337
186 180 179 162 168 171 165 171 176 178 169 177 180 179 173 159 154 154 157 158 154 156 148 148 154 108 75 56 106 65 236 9 44 33 43 36 89 112 127 90 74 60 43
180 177 171 156 165 176 175 169 175 181 180 178 178 175 164 165 162 161 167 160 163 169 151 156 133 62 16 22 127 86 9 338 338 14 34 47 52 100 127 105 98 68 54
183 174 163 162 164 169 175 175 176 186 184 177 170 168 171 180 183 174 170 170 180 185 170 182 37 342 333 30 102 7 325 322 318 350 358 4 56 80 120 127 130 77 51
184 177 169 162 164 165 172 181 187 187 178 178 183 184 181 187 196 186 180 185 193 210 219 268 71 338 350 346 289 265 306 325 322 346 11 33 72 93 123 141 153 117 56
188 185 173 173 168 174 176 179 178 180 184 194 194 191 177 195 203 206 209 226 220 227 238 230 197 318 17 113 282 342 276 292 303 320 344 34 139 124 115 161 146 127 133
195 186 179 173 184 182 185 183 191 196 203 206 201 201 198 171 208 213 221 215 226 225 220 214 215 265 284 241 290 209 237 254 277 298 311 321 140 201 137 107 60 296 264
198 190 191 187 186 191 191 187 199 201 214 223 205 183 175 188 193 210 222 213 218 207 207 215 229 248 276 253 273 292 278 275 293 280 248 205 214 259 254 286 308 334 282
206 198 200 198 199 193 195 204 218 206 205 216 208 195 184 197 211 259 210 200 207 205 207 222 240 251 267 262 265 273 292 276 292 279 276 188 206 253 280 266 251 262 249
210 208 210 207 205 199 196 201 195 201 208 214 208 211 208 205 216 178 181 210 221 209 210 229 254 258 254 264 260 265 270 275 275 309 309 247 304 280 307 299 241 236 225
214 213 213 217 212 205 200 202 212 216 219 219 210 207 205 204 218 218 216 223 236 233 234 250 257 264 257 253 256 250 262 262 265 304 297 281 314 292 295 289 280 238 218
217 215 217 213 216 212 210 213 219 220 226 220 215 212 211 214 219 221 223 233 242 246 254 255 255 257 258 254 258 260 254 255 258 278 317 326 313 317 290 296 300 234 236